Seminole, TX

4:17 PM CST on December 11, 2019 (GMT -0600)
Seminole

Weather History for KGNC - July, 2019

Change the Weather History Date:

Friday, July 19, 2019

  Actual Average (WUND) Record (WUND)
Temperature  
Mean Temperature 88 °F -  
Max Temperature 101 °F - - (-1)
Min Temperature 75 °F - - (-1)
Cooling Degree Days 22    
Growing Degree Days 38 (Base 50)    
Moisture  
Dew Point 55 °F    
Average Humidity 35    
Maximum Humidity 55    
Minimum Humidity 19    
Precipitation  
Precipitation 0.00 in - - ()
Sea Level Pressure  
Sea Level Pressure 29.99 in    
Wind  
Wind Speed 12 mph (South)    
Max Wind Speed 17 mph    
Max Gust Speed 24 mph    
Visibility 10 miles    
Events      
Averages and records for this station are not official NWS values.
T = Trace of Precipitation, MM = Missing Value Source: NWS Daily Summary

Daily Weather History Graph

Daily Weather History Graph

Search for Another Location

Airport or City:

Astronomy

Jul. 19, 2019 Rise Set
Actual Time 6:55 AM CDT 8:57 PM CDT
Civil Twilight 6:28 AM CDT 9:25 PM CDT
Nautical Twilight 5:54 AM CDT 9:58 PM CDT
Astronomical Twilight 5:18 AM CDT 10:34 PM CDT
Moon 11:03 PM CDT (7/19) 9:19 AM CDT (7/19)
Length of Visible Light 14h 56m
Length of Day
14h 01m
Waning Gibbous, 93% of the Moon is Illuminated
Jul 19
Waning Gibbous
Jul 24
Last Quarter
Jul 31
New
Aug 7
First Quarter
Aug 15
Full

Hourly Weather History & Observations

Time (CDT) Temp. Heat Index Dew Point Humidity Pressure Visibility Wind Dir Wind Speed Gust Speed Precip Events Conditions
12:15 AM 84.4 °F 83.8 °F 58.1 °F 41% 30.00 in 10.0 mi South 16.1 mph 23.0 mph N/A   Clear
12:35 AM 83.8 °F 83.1 °F 57.4 °F 40% 30.00 in 10.0 mi South 17.3 mph 24.2 mph N/A   Clear
12:55 AM 82.9 °F 82.6 °F 57.4 °F 42% 30.00 in 10.0 mi South 12.7 mph 17.3 mph N/A   Clear
1:15 AM 81.9 °F 81.8 °F 57.7 °F 44% 30.00 in 10.0 mi South 11.5 mph 16.1 mph N/A   Clear
1:35 AM 81.5 °F 81.5 °F 57.6 °F 44% 30.00 in 10.0 mi South 9.2 mph 17.3 mph N/A   Clear
1:55 AM 81.0 °F 81.0 °F 57.2 °F 44% 30.00 in 10.0 mi South 11.5 mph 17.3 mph N/A   Clear
2:15 AM 80.6 °F 80.7 °F 56.8 °F 44% 30.00 in 10.0 mi South 11.5 mph - N/A   Clear
2:35 AM 80.1 °F 80.4 °F 56.7 °F 45% 30.00 in 10.0 mi South 11.5 mph 17.3 mph N/A   Clear
2:55 AM 79.5 °F - 56.5 °F 45% 30.00 in 10.0 mi South 9.2 mph - N/A   Clear
3:15 AM 79.0 °F - 56.3 °F 46% 30.00 in 10.0 mi South 10.4 mph 16.1 mph N/A   Clear
3:35 AM 78.8 °F - 56.3 °F 46% 30.00 in 10.0 mi South 10.4 mph - N/A   Clear
3:55 AM 78.1 °F - 56.1 °F 47% 30.00 in 10.0 mi South 10.4 mph - N/A   Clear
4:15 AM 77.9 °F - 55.9 °F 47% 29.99 in 10.0 mi South 10.4 mph - N/A   Clear
4:35 AM 77.9 °F - 55.9 °F 47% 30.00 in 10.0 mi South 9.2 mph - N/A   Clear
4:55 AM 77.4 °F - 55.9 °F 47% 30.00 in 10.0 mi South 9.2 mph - N/A   Clear
5:15 AM 77.0 °F - 55.9 °F 48% 30.00 in 10.0 mi South 8.1 mph - N/A   Clear
5:35 AM 76.1 °F - 56.1 °F 50% 30.00 in 10.0 mi South 6.9 mph - N/A   Clear
5:55 AM 75.7 °F - 56.1 °F 50% 30.00 in 10.0 mi South 8.1 mph - N/A   Clear
6:15 AM 75.6 °F - 56.3 °F 51% 30.01 in 10.0 mi South 9.2 mph - N/A   Clear
6:35 AM 75.6 °F - 56.5 °F 51% 30.01 in 10.0 mi South 8.1 mph - N/A   Clear
6:55 AM 75.6 °F - 57.4 °F 53% 30.01 in 10.0 mi South 11.5 mph - N/A   Clear
7:15 AM 75.2 °F - 57.9 °F 55% 30.01 in 10.0 mi SSE 10.4 mph - N/A   Clear
7:35 AM 75.7 °F - 58.5 °F 55% 30.01 in 10.0 mi South 11.5 mph 17.3 mph N/A   Clear
7:55 AM 76.3 °F - 59.0 °F 55% 30.01 in 10.0 mi South 12.7 mph 17.3 mph N/A   Clear
8:15 AM 77.2 °F - 59.9 °F 55% 30.01 in 10.0 mi South 13.8 mph - N/A   Clear
8:35 AM 78.4 °F - 59.9 °F 53% 30.02 in 10.0 mi South 13.8 mph - N/A   Clear
8:55 AM 79.9 °F - 59.9 °F 50% 30.02 in 10.0 mi South 12.7 mph 17.3 mph N/A   Clear
9:15 AM 81.5 °F 81.8 °F 59.7 °F 47% 30.02 in 10.0 mi South 11.5 mph 20.7 mph N/A   Clear
9:35 AM 82.8 °F 82.7 °F 59.0 °F 44% 30.02 in 10.0 mi South 16.1 mph 19.6 mph N/A   Clear
9:55 AM 84.4 °F 84.0 °F 59.0 °F 42% 30.02 in 10.0 mi SSW 11.5 mph 18.4 mph N/A   Clear
10:15 AM 86.0 °F 85.4 °F 58.8 °F 40% 30.02 in 10.0 mi South 11.5 mph 19.6 mph N/A   Clear
10:35 AM 87.8 °F 86.7 °F 58.1 °F 36% 30.02 in 10.0 mi South 13.8 mph - N/A   Clear
10:55 AM 88.5 °F 87.5 °F 58.1 °F 36% 30.02 in 10.0 mi South 11.5 mph - N/A   Clear
11:15 AM 90.1 °F 89.1 °F 57.9 °F 34% 30.02 in 10.0 mi South 12.7 mph 18.4 mph N/A   Clear
11:35 AM 91.6 °F 90.1 °F 57.2 °F 31% 30.02 in 10.0 mi SSW 13.8 mph 20.7 mph N/A   Clear
11:55 AM 93.0 °F 91.7 °F 57.2 °F 30% 30.01 in 10.0 mi SSW 11.5 mph 18.4 mph N/A   Clear
12:15 PM 94.3 °F 92.7 °F 56.7 °F 28% 30.01 in 10.0 mi South 10.4 mph 18.4 mph N/A   Clear
12:35 PM 95.2 °F 93.6 °F 56.1 °F 27% 30.01 in 10.0 mi SSW 16.1 mph 20.7 mph N/A   Clear
12:55 PM 95.9 °F 94.2 °F 55.6 °F 26% 30.01 in 10.0 mi SW 12.7 mph 20.7 mph N/A   Clear
1:15 PM 96.8 °F 95.1 °F 55.4 °F 25% 30.01 in 10.0 mi SW 12.7 mph 19.6 mph N/A   Clear
1:35 PM 97.7 °F 95.9 °F 54.7 °F 24% 30.00 in 10.0 mi SSW 11.5 mph 20.7 mph N/A   Clear
1:55 PM 98.4 °F 96.5 °F 54.5 °F 23% 29.99 in 10.0 mi South 10.4 mph - N/A   Clear
2:15 PM 98.6 °F 96.8 °F 54.5 °F 23% 29.99 in 10.0 mi South 13.8 mph 21.9 mph N/A   Clear
2:35 PM 99.0 °F - 52.7 °F 21% 29.98 in 10.0 mi South 12.7 mph 19.6 mph N/A   Clear
2:55 PM 100.0 °F - 51.1 °F 19% 29.98 in 10.0 mi SW 4.6 mph 18.4 mph N/A   Clear
3:15 PM 100.4 °F - 51.1 °F 19% 29.97 in 10.0 mi SSE 16.1 mph 24.2 mph N/A   Clear
3:35 PM 99.7 °F - 50.9 °F 19% 29.97 in 10.0 mi SSW 9.2 mph 20.7 mph N/A   Clear
3:55 PM 100.6 °F - 50.5 °F 19% 29.96 in 10.0 mi South 16.1 mph 20.7 mph N/A   Clear
4:15 PM 99.9 °F - 50.9 °F 19% 29.96 in 10.0 mi SSW 9.2 mph - N/A   Scattered Clouds
4:35 PM 100.4 °F - 50.5 °F 19% 29.96 in 10.0 mi SSW 11.5 mph 20.7 mph N/A   Scattered Clouds
4:55 PM 100.4 °F - 51.3 °F 19% 29.95 in 10.0 mi SSE 11.5 mph 20.7 mph N/A   Scattered Clouds
5:15 PM 99.7 °F - 51.1 °F 19% 29.95 in 10.0 mi SSE 9.2 mph 16.1 mph N/A   Scattered Clouds
5:35 PM 100.4 °F - 51.6 °F 19% 29.94 in 10.0 mi SSE 12.7 mph 18.4 mph N/A   Clear
5:55 PM 100.0 °F - 51.8 °F 20% 29.93 in 10.0 mi SSE 9.2 mph 18.4 mph N/A   Scattered Clouds
6:15 PM 99.9 °F - 51.8 °F 20% 29.93 in 10.0 mi South 13.8 mph 20.7 mph N/A   Scattered Clouds
6:35 PM 98.2 °F - 52.2 °F 21% 29.93 in 10.0 mi South 13.8 mph - N/A   Clear
6:55 PM 98.6 °F - 51.8 °F 21% 29.92 in 10.0 mi South 15.0 mph 19.6 mph N/A   Clear
7:15 PM 98.1 °F - 52.0 °F 21% 29.93 in 10.0 mi South 12.7 mph 18.4 mph N/A   Clear
7:35 PM 97.2 °F - 51.8 °F 22% 29.93 in 10.0 mi SSE 13.8 mph 23.0 mph N/A   Clear
7:55 PM 96.6 °F - 51.8 °F 22% 29.93 in 10.0 mi South 12.7 mph 19.6 mph N/A   Clear
8:15 PM 95.4 °F - 51.8 °F 23% 29.94 in 10.0 mi SSE 11.5 mph - N/A   Clear
8:35 PM 93.7 °F - 52.0 °F 24% 29.94 in 10.0 mi SSE 12.7 mph 17.3 mph N/A   Clear
8:55 PM 92.5 °F - 52.7 °F 26% 29.95 in 10.0 mi South 12.7 mph - N/A   Clear
9:15 PM 91.0 °F - 52.7 °F 27% 29.96 in 10.0 mi SSE 10.4 mph - N/A   Clear
9:35 PM 90.3 °F 87.9 °F 53.2 °F 28% 29.96 in 10.0 mi South 13.8 mph - N/A   Clear
9:55 PM 89.2 °F - 52.9 °F 29% 29.97 in 10.0 mi SSE 13.8 mph 18.4 mph N/A   Clear
10:15 PM 88.2 °F - 52.9 °F 30% 29.98 in 10.0 mi SSE 13.8 mph 18.4 mph N/A   Clear
10:35 PM 87.3 °F - 52.7 °F 30% 29.99 in 10.0 mi South 11.5 mph - N/A   Clear
10:55 PM 86.7 °F - 51.6 °F 30% 30.00 in 10.0 mi SSE 10.4 mph 20.7 mph N/A   Clear
11:15 PM 85.5 °F - 51.3 °F 31% 30.01 in 10.0 mi SSE 11.5 mph - N/A   Clear
11:35 PM 84.4 °F - 50.4 °F 31% 30.01 in 10.0 mi South 11.5 mph 16.1 mph N/A   Clear
11:55 PM 83.7 °F - 50.0 °F 31% 30.01 in 10.0 mi South 11.5 mph - N/A   Clear